Driggs, ID

8:33 AM MDT on April 23, 2017 (GMT -0600)
Driggs

Weather History for KDIJ - May, 2013

Change the Weather History Date:

Wednesday, May 1, 2013

  Actual Average (KJAC) Record (KJAC)
Temperature  
Mean Temperature 34 °F -  
Max Temperature 42 °F 55 °F 75 °F (2007)
Min Temperature 25 °F 24 °F 10 °F (1967)
Degree Days  
Heating Degree Days 32    
Moisture  
Dew Point 16 °F    
Average Humidity 55    
Maximum Humidity 93    
Minimum Humidity 19    
Precipitation  
Precipitation 0.02 in - - ()
Sea Level Pressure  
Sea Level Pressure 30.30 in    
Wind  
Wind Speed 8 mph (NNW)    
Max Wind Speed 14 mph    
Max Gust Speed 24 mph    
Visibility 10 miles    
Events Snow    
Averages and records for this station are not official NWS values.
T = Trace of Precipitation, MM = Missing Value Source: NWS Daily Summary

Daily Weather History Graph

Daily Weather History Graph

Search for Another Location

Airport or City:

Trip Planner

Search our weather history database for the weather conditions in past years. The results will help you decide how hot, cold, wet, or windy it might be!

Date:

Astronomy

May. 01, 2013 Rise Set
Actual Time 6:16 AM MDT 8:27 PM MDT
Civil Twilight 5:44 AM MDT 8:59 PM MDT
Nautical Twilight 5:05 AM MDT 9:38 PM MDT
Astronomical Twilight 4:22 AM MDT 10:21 PM MDT
Moon 1:39 AM MDT (5/1) 11:58 AM MDT (5/1)
Length of Visible Light 15h 14m
Length of Day
14h 11m
Waning Gibbous, 58% of the Moon is Illuminated
May 1
Waning Gibbous
May 2
Last Quarter
May 9
New
May 17
First Quarter
May 24
Full

Hourly Weather History & Observations

Time (MDT) Temp. Windchill Dew Point Humidity Pressure Visibility Wind Dir Wind Speed Gust Speed Precip Events Conditions
12:03 AM 28.4 °F 23.3 °F 26.6 °F 93% 30.05 in 1.5 mi NNW 4.6 mph - 0.00 in Snow Light Snow
12:17 AM 28.4 °F 24.6 °F 26.6 °F 93% 30.06 in 10.0 mi NNW 3.5 mph - 0.00 in Snow Light Snow
12:56 AM 29.1 °F 23.0 °F 26.1 °F 88% 30.04 in 10.0 mi West 5.8 mph - 0.00 in   Overcast
1:56 AM 28.0 °F 20.0 °F 22.1 °F 78% 30.04 in 10.0 mi NNW 8.1 mph - 0.00 in   Overcast
2:56 AM 29.1 °F 20.6 °F 22.1 °F 75% 30.05 in 10.0 mi NNW 9.2 mph - N/A   Overcast
3:56 AM 27.1 °F 17.5 °F 21.0 °F 78% 30.08 in 10.0 mi NW 10.4 mph - N/A   Clear
4:56 AM 26.1 °F 16.2 °F 20.1 °F 78% 30.11 in 10.0 mi NW 10.4 mph - N/A   Partly Cloudy
5:56 AM 25.2 °F 17.3 °F 19.0 °F 78% 30.15 in 10.0 mi WNW 6.9 mph - N/A   Partly Cloudy
7:56 AM 25.2 °F 17.3 °F 19.0 °F 78% 30.26 in 10.0 mi NW 6.9 mph - N/A   Clear
8:56 AM 28.0 °F 21.7 °F 21.0 °F 75% 30.29 in 10.0 mi SSE 5.8 mph - N/A   Clear
9:56 AM 31.1 °F 27.7 °F 22.1 °F 69% 30.30 in 10.0 mi Variable 3.5 mph - N/A   Scattered Clouds
10:34 AM 35.6 °F 29.9 °F 24.8 °F 65% 30.30 in 10.0 mi Variable 6.9 mph - 0.02 in   Mostly Cloudy
10:56 AM 34.0 °F 25.0 °F 18.1 °F 52% 30.32 in 10.0 mi North 12.7 mph - 0.02 in   Mostly Cloudy
12:30 PM 35.6 °F 28.6 °F 14.0 °F 41% 30.34 in 10.0 mi NNW 9.2 mph 24.2 mph 0.00 in Snow Light Snow
12:56 PM 36.9 °F 29.6 °F 11.1 °F 35% 30.34 in 10.0 mi North 10.4 mph - 0.00 in   Scattered Clouds
1:14 PM 37.4 °F 30.3 °F 6.8 °F 28% 30.35 in 10.0 mi NW 10.4 mph - N/A   Partly Cloudy
1:56 PM 39.9 °F 32.1 °F 13.1 °F 33% 30.34 in 10.0 mi North 13.8 mph 21.9 mph N/A   Mostly Cloudy
2:44 PM 42.8 °F 36.6 °F 15.8 °F 34% 30.38 in 10.0 mi North 11.5 mph 21.9 mph N/A   Scattered Clouds
2:56 PM 41.0 °F 33.9 °F 12.0 °F 31% 30.36 in 10.0 mi North 12.7 mph 18.4 mph N/A   Scattered Clouds
3:56 PM 38.8 °F 33.8 °F 13.1 °F 35% 30.39 in 10.0 mi ENE 6.9 mph - 0.00 in   Mostly Cloudy
5:32 PM 39.2 °F 32.5 °F 14.0 °F 36% 30.42 in 10.0 mi ESE 10.4 mph - N/A   Partly Cloudy
5:56 PM 41.0 °F 34.7 °F 6.1 °F 24% 30.42 in 10.0 mi NW 10.4 mph - N/A   Scattered Clouds
6:56 PM 41.9 °F 34.6 °F 2.1 °F 19% 30.43 in 10.0 mi NW 13.8 mph - N/A   Scattered Clouds
7:56 PM 39.9 °F 32.5 °F 2.1 °F 21% 30.46 in 10.0 mi North 12.7 mph - N/A   Clear
8:56 PM 32.0 °F 25.6 °F 6.1 °F 34% 30.52 in 10.0 mi NNE 6.9 mph - N/A   Clear
9:56 PM 27.1 °F 18.9 °F 11.1 °F 51% 30.56 in 10.0 mi NE 8.1 mph - N/A   Clear
10:56 PM 26.1 °F 20.5 °F 8.1 °F 47% 30.57 in 10.0 mi South 4.6 mph - N/A   Clear
11:56 PM 25.2 °F - 13.1 °F 60% 30.58 in 10.0 mi Calm Calm - N/A   Clear